DECAYED

SCOUT X-1 DEB, 85 (Decayed)

Orbit data source: Space-Track

SCOUT X-1 DEB, 85 was space debris in LEO originally from a launch on Thu, 16 Feb 1961 UTC launched from the Wallops Island (WLPIS). Debris objects in space refer to the collection of defunct objects orbiting the Earth. Examples of debris include non-operational satellites, rocket bodies, and fragments generated from explosions, collisions, or faulty payload assembly.

Not visible in the next 10 days
Identifier
85, 1961-004C
Orbit
Decayed
Country
Flag of USUS
Related business
Manufacturer
Unknown
Mission
Decayed spacecraft
Bus & Motor
Unknown
Mass
Unknown
Launch date (UTC)
1961-02-16 (65 years ago)
Launch vehicle
Unknown
Launch site
Wallops Island (WLPIS)
Object type
Payload
Rocket body
Debris
Shape & HBR
Unknown shape, 0.1 m
Radar Cross Section
Small (<0.1 m²)

Expand to show TLE details & history
Last TLE update: 1 year ago

TLE from 1 year ago
0 SCOUT X-1 DEB
1    85U 61004C   25126.91579424  .00547528  00000-0  83528-2 0  9990
2    85  38.6281 333.3586 0047038 226.2995 133.3890 15.50513241188530
Epoch: 2025-05-06T21:58Z
TLE epoch observation values (Epoch: 2025-05-06T21:58:44.622Z)
Latitude
-0.00003°
Longitude
138.6645°
Altitude
436.538 km
Speed
7.64 km/s
True Right ascension
22h 13m 26s
True Declination
0° 00' 00"
Sunlit
Object was in daylight at epoch
Visualization orbit readout
Latitude
Unknown
Longitude
Unknown
Altitude
Unknown
Speed
Unknown
Apparent Right ascension
Unknown
Apparent Declination
Unknown
Sunlit
N/A
Visualization observer readout
Local Sidereal Time
23:10:47
Azimuth
Unknown
Elevation
Unknown
Doppler factor
Unknown
Orbital elements
Apogee altitude
449.892 km
Perigee altitude
385.958 km
Semi-major axis
6,796.062 km
Eccentricity
0.0047
Inclination
38.6281°
RAAN
333.3586°
Arg. of periapsis
226.2995°
True anomaly
133.77913°
Mean anomaly
133.389°
Eccentric anomaly
133.58422°
Mean motion
3.87398 °/min
Orbital period
92.93 mins
BSTAR
0.0083528
Loading maneuver chart data...
Computing Atmospheric mass density...
Loading historical data...
Loading historical data...
Loading historical data...
Loading historical data...
Loading historical data...
Loading historical data...
Loading historical data...

Documentation

Showing up to 5 results
|